EZY39MX EGPH-LGRP

Flight info

Callsign EZY39MX
Flight time N/A
Altitude 35000
Route TLA Y96 OTBUN DCT ERKIT N110 DOLAS DCT NAVPI DCT TIVUN DCT ESAMA DCT OSBIT DCT TENLO DCT LAMSI DCT SITNI DCT SASAL/N0458F370 DCT BABIT DCT NISVA DCT NIKTI DCT MES UN139 LURUS UL995 CODIC
Aircraft A320/M-SDE3FGHIRWY/LB1

Departure

Time 2026-04-21 15:35
Airport Edinburgh Airport (EGPH)

Arrival

Time N/A
Airport Rhodes International Airport "Diagoras" (LGRP)
Time Latitude Longitude Altitude Speed Heading
2026-04-21 14:41 55.94894 -3.36003 115 ft 0 kts 254°
2026-04-21 14:41 55.94894 -3.36002 115 ft 0 kts 254°
2026-04-21 14:50 55.94894 -3.36001 115 ft 0 kts 254°
2026-04-21 14:59 55.94894 -3.36000 116 ft 0 kts 254°
2026-04-21 15:07 55.94894 -3.35999 116 ft 0 kts 254°
2026-04-21 15:16 55.94894 -3.35998 116 ft 0 kts 254°
2026-04-21 15:17 55.94895 -3.35998 116 ft 0 kts 254°
2026-04-21 15:17 55.94899 -3.35973 113 ft 4 kts 254°
2026-04-21 15:18 55.94906 -3.35926 114 ft 4 kts 255°
2026-04-21 15:18 55.94911 -3.35890 113 ft 4 kts 254°
2026-04-21 15:18 55.94918 -3.35844 114 ft 4 kts 265°
2026-04-21 15:18 55.94915 -3.35803 114 ft 1 kts 298°
2026-04-21 15:19 55.94915 -3.35802 113 ft 2 kts 298°
2026-04-21 15:22 55.94925 -3.35829 115 ft 6 kts 305°
2026-04-21 15:23 55.94956 -3.35861 115 ft 5 kts 342°
2026-04-21 15:23 55.94982 -3.35857 116 ft 3 kts 22°
2026-04-21 15:23 55.95005 -3.35839 114 ft 4 kts 25°
2026-04-21 15:23 55.95057 -3.35872 112 ft 14 kts 308°
2026-04-21 15:24 55.95096 -3.36011 116 ft 11 kts 293°
2026-04-21 15:24 55.95119 -3.36135 114 ft 10 kts 288°
2026-04-21 15:24 55.95138 -3.36243 114 ft 8 kts 281°
2026-04-21 15:24 55.95116 -3.36338 114 ft 10 kts 238°
2026-04-21 15:25 55.95075 -3.36458 113 ft 11 kts 239°
2026-04-21 15:25 55.95039 -3.36564 112 ft 9 kts 239°
2026-04-21 15:25 55.95005 -3.36662 115 ft 10 kts 239°
2026-04-21 15:25 55.94966 -3.36778 113 ft 12 kts 239°
2026-04-21 15:26 55.94927 -3.36893 114 ft 10 kts 239°
2026-04-21 15:26 55.94894 -3.36992 113 ft 8 kts 238°
2026-04-21 15:26 55.94863 -3.37080 115 ft 8 kts 238°
2026-04-21 15:26 55.94837 -3.37159 115 ft 7 kts 239°
2026-04-21 15:27 55.94793 -3.37285 114 ft 22 kts 238°
2026-04-21 15:27 55.94712 -3.37523 115 ft 22 kts 239°
2026-04-21 15:27 55.94639 -3.37742 113 ft 20 kts 237°
2026-04-21 15:27 55.94571 -3.37943 114 ft 18 kts 239°
2026-04-21 15:28 55.94509 -3.38127 114 ft 16 kts 238°
2026-04-21 15:28 55.94453 -3.38291 114 ft 15 kts 238°
2026-04-21 15:28 55.94403 -3.38440 114 ft 13 kts 239°
2026-04-21 15:28 55.94358 -3.38570 112 ft 11 kts 238°
2026-04-21 15:29 55.94320 -3.38682 112 ft 10 kts 239°
2026-04-21 15:29 55.94288 -3.38778 113 ft 8 kts 239°
2026-04-21 15:29 55.94286 -3.38858 112 ft 6 kts 303°
2026-04-21 15:29 55.94315 -3.38896 114 ft 5 kts 327°
2026-04-21 15:30 55.94320 -3.38902 113 ft 1 kts 328°
2026-04-21 15:30 55.94321 -3.38904 116 ft 0 kts 328°
2026-04-21 15:31 55.94321 -3.38903 116 ft 0 kts 328°
2026-04-21 15:33 55.94363 -3.38949 113 ft 12 kts 328°
2026-04-21 15:33 55.94417 -3.38965 114 ft 6 kts 47°
2026-04-21 15:34 55.94445 -3.38884 114 ft 12 kts 59°
2026-04-21 15:34 55.94604 -3.38414 112 ft 79 kts 59°
2026-04-21 15:34 55.94992 -3.37282 110 ft 132 kts 58°
2026-04-21 15:34 55.95489 -3.35787 590 ft 141 kts 62°
2026-04-21 15:35 55.96007 -3.34243 1194 ft 150 kts 53°
2026-04-21 15:35 55.96811 -3.32908 1582 ft 168 kts 43°
2026-04-21 15:35 55.97742 -3.31442 1841 ft 191 kts 45°
2026-04-21 15:35 55.98796 -3.29754 2208 ft 216 kts 45°
2026-04-21 15:36 55.99969 -3.27867 2692 ft 235 kts 45°
2026-04-21 15:36 56.01201 -3.25887 3521 ft 240 kts 45°
2026-04-21 15:36 56.02453 -3.23877 4396 ft 244 kts 45°
2026-04-21 15:36 56.03728 -3.21825 5254 ft 248 kts 46°
2026-04-21 15:37 56.04897 -3.19548 6067 ft 250 kts 60°
2026-04-21 15:37 56.05547 -3.16679 6891 ft 251 kts 81°
2026-04-21 15:37 56.05565 -3.13559 7649 ft 255 kts 100°
2026-04-21 15:37 56.04994 -3.10543 8440 ft 259 kts 117°
2026-04-21 15:38 56.03886 -3.07974 9240 ft 265 kts 136°
2026-04-21 15:38 56.02421 -3.05927 10052 ft 269 kts 140°
2026-04-21 15:38 56.00919 -3.03890 10813 ft 272 kts 140°
2026-04-21 15:38 55.99451 -3.01843 11693 ft 268 kts 136°
2026-04-21 15:39 55.98168 -2.99300 12011 ft 285 kts 128°
2026-04-21 15:39 55.96584 -2.97024 12174 ft 313 kts 153°
2026-04-21 15:39 55.94324 -2.96324 12322 ft 344 kts 182°
2026-04-21 15:39 55.91964 -2.97640 12459 ft 372 kts 207°
2026-04-21 15:40 55.89832 -3.00311 12850 ft 385 kts 214°
2026-04-21 15:40 55.87683 -3.03194 13450 ft 389 kts 214°
2026-04-21 15:40 55.85505 -3.06116 14056 ft 393 kts 214°
2026-04-21 15:40 55.83261 -3.08932 14604 ft 395 kts 208°
2026-04-21 15:41 55.80844 -3.11287 15165 ft 397 kts 203°
2026-04-21 15:41 55.78332 -3.13352 15700 ft 399 kts 200°
2026-04-21 15:41 55.75755 -3.15269 16234 ft 401 kts 199°
2026-04-21 15:41 55.73164 -3.17138 16760 ft 404 kts 199°
2026-04-21 15:42 55.70553 -3.19049 17274 ft 407 kts 199°
2026-04-21 15:42 55.67929 -3.21030 17782 ft 411 kts 200°
2026-04-21 15:42 55.65298 -3.23074 18284 ft 414 kts 201°
2026-04-21 15:42 55.62659 -3.25142 18778 ft 416 kts 199°
2026-04-21 15:43 55.59885 -3.26530 19198 ft 414 kts 185°
2026-04-21 15:43 55.57019 -3.26643 19636 ft 411 kts 170°
2026-04-21 15:43 55.54264 -3.25427 20053 ft 407 kts 155°
2026-04-21 15:43 55.51824 -3.23064 20432 ft 406 kts 141°
2026-04-21 15:44 55.49764 -3.19683 20844 ft 405 kts 128°
2026-04-21 15:44 55.48218 -3.15470 21268 ft 405 kts 114°
2026-04-21 15:44 55.47317 -3.10775 21680 ft 406 kts 101°
2026-04-21 15:44 55.46800 -3.05887 22129 ft 407 kts 100°
2026-04-21 15:45 55.46164 -3.01007 22419 ft 412 kts 107°
2026-04-21 15:45 55.45066 -2.96337 22819 ft 414 kts 117°
2026-04-21 15:45 55.43658 -2.91907 23241 ft 414 kts 119°
2026-04-21 15:45 55.42252 -2.87522 23621 ft 417 kts 119°
2026-04-21 15:46 55.40823 -2.83044 23954 ft 420 kts 119°
2026-04-21 15:46 55.39388 -2.78545 24196 ft 425 kts 119°
2026-04-21 15:46 55.37934 -2.74005 24507 ft 426 kts 118°
2026-04-21 15:46 55.36476 -2.69462 24807 ft 427 kts 118°
2026-04-21 15:47 55.35012 -2.64903 25171 ft 428 kts 118°
2026-04-21 15:47 55.33545 -2.60330 25394 ft 431 kts 118°
2026-04-21 15:47 55.32064 -2.55731 25628 ft 434 kts 119°
2026-04-21 15:47 55.30573 -2.51107 25874 ft 436 kts 118°
2026-04-21 15:48 55.28996 -2.46551 26150 ft 438 kts 125°
2026-04-21 15:48 55.27048 -2.42433 26455 ft 440 kts 133°
2026-04-21 15:48 55.24737 -2.38876 26758 ft 442 kts 142°
2026-04-21 15:48 55.22271 -2.35639 26954 ft 445 kts 142°
2026-04-21 15:49 55.19784 -2.32359 27139 ft 449 kts 142°
2026-04-21 15:49 55.17292 -2.29056 27404 ft 450 kts 142°
2026-04-21 15:49 55.14801 -2.25748 27734 ft 450 kts 142°
2026-04-21 15:49 55.12330 -2.22471 27989 ft 452 kts 142°
2026-04-21 15:50 55.09820 -2.19147 28284 ft 453 kts 142°
2026-04-21 15:50 55.07305 -2.15828 28648 ft 452 kts 143°
2026-04-21 15:50 55.04796 -2.12532 29066 ft 450 kts 143°
2026-04-21 15:50 55.02290 -2.09251 29397 ft 451 kts 143°
2026-04-21 15:51 54.99782 -2.05971 29722 ft 451 kts 143°
2026-04-21 15:51 54.97270 -2.02682 30027 ft 452 kts 143°
2026-04-21 15:51 54.94750 -1.99385 30324 ft 453 kts 143°
2026-04-21 15:51 54.92231 -1.96095 30630 ft 453 kts 143°
2026-04-21 15:52 54.89702 -1.92803 30906 ft 454 kts 143°
2026-04-21 15:52 54.87174 -1.89520 31159 ft 454 kts 143°
2026-04-21 15:52 54.86108 -1.88139 31268 ft 455 kts 144°
2026-04-21 15:52 54.85471 -1.87314 31341 ft 455 kts 143°
2026-04-21 15:53 54.82930 -1.84020 31516 ft 457 kts 143°
2026-04-21 15:53 54.80413 -1.80758 31714 ft 459 kts 143°
2026-04-21 15:53 54.77849 -1.77439 31948 ft 460 kts 143°
2026-04-21 15:53 54.75281 -1.74124 32195 ft 461 kts 143°
2026-04-21 15:54 54.72710 -1.70813 32473 ft 461 kts 144°
2026-04-21 15:54 54.70119 -1.67484 32607 ft 465 kts 144°
2026-04-21 15:54 54.67517 -1.64142 32800 ft 467 kts 144°
2026-04-21 15:54 54.64897 -1.60781 32948 ft 471 kts 143°
2026-04-21 15:55 54.62268 -1.57412 33216 ft 471 kts 143°
2026-04-21 15:55 54.60529 -1.55186 33419 ft 470 kts 143°
2026-04-21 15:55 54.57907 -1.51834 33764 ft 469 kts 143°
2026-04-21 15:55 54.55288 -1.48491 34037 ft 469 kts 143°
2026-04-21 15:56 54.52666 -1.45161 34354 ft 467 kts 143°
2026-04-21 15:56 54.50053 -1.41848 34641 ft 467 kts 143°
2026-04-21 15:56 54.47437 -1.38535 34858 ft 467 kts 144°
2026-04-21 15:56 54.44815 -1.35219 35042 ft 468 kts 144°